Wildwood, NJ

9:21 PM EDT on August 20, 2017 (GMT -0400)
Cape May County

Weather History for KWWD - November, 2014

Change the Weather History Date:

Sunday, November 30, 2014

  Actual Average Record
Temperature  
Mean Temperature 52 °F -  
Max Temperature 60 °F 49 °F 68 °F (2006)
Min Temperature 44 °F 36 °F 24 °F (1996)
Degree Days  
Heating Degree Days 13    
Growing Degree Days 2 (Base 50)    
Moisture  
Dew Point 36 °F    
Average Humidity 56    
Maximum Humidity 67    
Minimum Humidity 45    
Precipitation  
Precipitation 0.00 in - - ()
Sea Level Pressure  
Sea Level Pressure 30.16 in    
Wind  
Wind Speed 11 mph (SSW)    
Max Wind Speed 17 mph    
Max Gust Speed 23 mph    
Visibility 10 miles    
Events      
Averages and records for this station are not official NWS values.
T = Trace of Precipitation, MM = Missing Value Source: NWS Daily Summary

Daily Weather History Graph

Daily Weather History Graph

Search for Another Location

Airport or City:

Trip Planner

Search our weather history database for the weather conditions in past years. The results will help you decide how hot, cold, wet, or windy it might be!

Date:

Astronomy

Nov. 30, 2014 Rise Set
Actual Time 6:58 AM EST 4:37 PM EST
Civil Twilight 6:29 AM EST 5:07 PM EST
Nautical Twilight 5:56 AM EST 5:40 PM EST
Astronomical Twilight 5:23 AM EST 6:12 PM EST
Moon 1:03 PM EST (11/30) 12:29 AM EST (11/30)
Length of Visible Light 10h 38m
Length of Day
9h 39m
Waxing Gibbous, 64% of the Moon is Illuminated
Nov 30
Waxing Gibbous
Dec 6
Full
Dec 14
Last Quarter
Dec 21
New
Dec 28
First Quarter

Hourly Weather History & Observations

Time (EST) Temp. Windchill Dew Point Humidity Pressure Visibility Wind Dir Wind Speed Gust Speed Precip Events Conditions
12:15 AM 46.4 °F 41.1 °F 32.0 °F 57% 30.21 in 10.0 mi South 11.5 mph - N/A   Overcast
12:35 AM 46.4 °F 41.9 °F 33.8 °F 62% 30.21 in 10.0 mi South 9.2 mph - N/A   Overcast
12:55 AM 46.4 °F 41.1 °F 33.8 °F 62% 30.21 in 10.0 mi South 11.5 mph - N/A   Overcast
1:15 AM 46.4 °F 41.9 °F 33.8 °F 62% 30.20 in 10.0 mi South 9.2 mph - N/A   Overcast
1:35 AM 46.4 °F 41.1 °F 33.8 °F 62% 30.20 in 10.0 mi South 11.5 mph 18.4 mph N/A   Overcast
1:55 AM 46.4 °F 40.4 °F 33.8 °F 62% 30.20 in 10.0 mi South 13.8 mph - N/A   Overcast
2:15 AM 46.4 °F 40.4 °F 32.0 °F 57% 30.21 in 10.0 mi South 13.8 mph 18.4 mph N/A   Overcast
2:35 AM 46.4 °F 41.1 °F 30.2 °F 53% 30.21 in 10.0 mi South 11.5 mph - N/A   Scattered Clouds
2:55 AM 44.6 °F 38.8 °F 30.2 °F 57% 30.21 in 10.0 mi South 11.5 mph - N/A   Clear
3:15 AM 44.6 °F 39.2 °F 30.2 °F 57% 30.20 in 10.0 mi South 10.4 mph - N/A   Clear
3:35 AM 44.6 °F 39.7 °F 28.4 °F 53% 30.20 in 10.0 mi South 9.2 mph 17.3 mph N/A   Clear
3:55 AM 44.6 °F 38.4 °F 28.4 °F 53% 30.20 in 10.0 mi South 12.7 mph - N/A   Clear
4:15 AM 44.6 °F 38.8 °F 30.2 °F 57% 30.20 in 10.0 mi South 11.5 mph - N/A   Clear
4:35 AM 44.6 °F 38.8 °F 30.2 °F 57% 30.20 in 10.0 mi South 11.5 mph - N/A   Scattered Clouds
4:55 AM 44.6 °F 38.4 °F 30.2 °F 57% 30.19 in 10.0 mi SSW 12.7 mph - N/A   Overcast
5:15 AM 44.6 °F 38.8 °F 30.2 °F 57% 30.19 in 10.0 mi South 11.5 mph - N/A   Overcast
5:35 AM 44.6 °F 39.2 °F 30.2 °F 57% 30.19 in 10.0 mi South 10.4 mph - N/A   Mostly Cloudy
5:55 AM 44.6 °F 38.4 °F 30.2 °F 57% 30.18 in 10.0 mi South 12.7 mph - N/A   Scattered Clouds
6:15 AM 44.6 °F 38.1 °F 30.2 °F 57% 30.18 in 10.0 mi South 13.8 mph - N/A   Partly Cloudy
6:35 AM 44.6 °F 39.2 °F 30.2 °F 57% 30.18 in 10.0 mi South 10.4 mph - N/A   Clear
6:55 AM 44.6 °F 38.8 °F 30.2 °F 57% 30.18 in 10.0 mi South 11.5 mph - N/A   Clear
7:15 AM 46.4 °F 40.7 °F 32.0 °F 57% 30.17 in 10.0 mi South 12.7 mph 18.4 mph N/A   Clear
7:35 AM 46.4 °F 41.1 °F 32.0 °F 57% 30.18 in 10.0 mi SSW 11.5 mph - N/A   Clear
7:55 AM 46.4 °F 41.1 °F 33.8 °F 62% 30.17 in 10.0 mi South 11.5 mph 18.4 mph N/A   Clear
8:15 AM 48.2 °F - 33.8 °F 58% 30.17 in 10.0 mi South 11.5 mph - N/A   Clear
8:35 AM 48.2 °F - 33.8 °F 58% 30.17 in 10.0 mi South 12.7 mph 19.6 mph N/A   Clear
8:55 AM 48.2 °F - 33.8 °F 58% 30.17 in 10.0 mi SSW 17.3 mph - N/A   Clear
9:15 AM 50.0 °F - 33.8 °F 54% 30.17 in 10.0 mi SSW 13.8 mph 20.7 mph N/A   Clear
9:35 AM 50.0 °F - 33.8 °F 54% 30.17 in 10.0 mi SSW 13.8 mph 18.4 mph N/A   Clear
9:55 AM 51.8 °F - 33.8 °F 50% 30.17 in 10.0 mi SSW 15.0 mph - N/A   Clear
10:15 AM 53.6 °F - 35.6 °F 51% 30.16 in 10.0 mi SSW 10.4 mph - N/A   Clear
10:35 AM 53.6 °F - 33.8 °F 47% - 10.0 mi SSW 13.8 mph 23.0 mph N/A   Clear
10:55 AM 53.6 °F - 33.8 °F 47% - 10.0 mi SW 12.7 mph 17.3 mph N/A   Clear
11:15 AM 55.4 °F - 35.6 °F 47% - 10.0 mi SSW 10.4 mph 16.1 mph N/A   Clear
11:35 AM 55.4 °F - 35.6 °F 47% - 10.0 mi SSW 13.8 mph 17.3 mph N/A   Clear
11:55 AM 55.4 °F - 35.6 °F 47% - 10.0 mi SSW 13.8 mph - N/A   Clear
12:15 PM 57.2 °F - 37.4 °F 48% - 10.0 mi SSW 11.5 mph - N/A   Clear
12:35 PM 57.2 °F - 37.4 °F 48% - 10.0 mi South 9.2 mph - N/A   Clear
12:55 PM 57.2 °F - 37.4 °F 48% - 10.0 mi South 10.4 mph - N/A   Clear
1:15 PM 57.2 °F - 37.4 °F 48% - 10.0 mi South 9.2 mph - N/A   Clear
1:35 PM 59.0 °F - 39.2 °F 48% - 10.0 mi SSW 8.1 mph - N/A   Clear
1:55 PM 60.8 °F - 39.2 °F 45% - 10.0 mi SSW 9.2 mph - N/A   Partly Cloudy
2:15 PM 59.0 °F - 39.2 °F 48% - 10.0 mi SSW 8.1 mph - N/A   Mostly Cloudy
2:35 PM 59.0 °F - 39.2 °F 48% - 10.0 mi SSW 9.2 mph - N/A   Overcast
2:55 PM 60.8 °F - 39.2 °F 45% - 10.0 mi SSW 9.2 mph - N/A   Overcast
3:15 PM 60.8 °F - 39.2 °F 45% - 10.0 mi South 9.2 mph - N/A   Mostly Cloudy
3:35 PM 59.0 °F - 39.2 °F 48% - 10.0 mi SSW 9.2 mph - N/A   Clear
3:55 PM 57.2 °F - 39.2 °F 51% - 10.0 mi South 6.9 mph - N/A   Clear
4:15 PM 55.4 °F - 39.2 °F 54% - 10.0 mi SSW 4.6 mph - N/A   Clear
4:35 PM 53.6 °F - 39.2 °F 58% - 10.0 mi SSW 6.9 mph - N/A   Clear
4:55 PM 53.6 °F - 39.2 °F 58% - 10.0 mi SSW 6.9 mph - N/A   Scattered Clouds
5:15 PM 53.6 °F - 39.2 °F 58% 30.09 in 10.0 mi SSW 5.8 mph - N/A   Overcast
5:35 PM 51.8 °F - 37.4 °F 58% 30.09 in 10.0 mi South 5.8 mph - N/A   Scattered Clouds
5:55 PM 51.8 °F - 39.2 °F 62% 30.10 in 10.0 mi South 5.8 mph - N/A   Clear
6:15 PM 51.8 °F - 39.2 °F 62% 30.11 in - SSW 6.9 mph - N/A   Unknown
6:35 PM 51.8 °F - 39.2 °F 62% 30.11 in 10.0 mi South 6.9 mph - N/A   Clear
6:55 PM 50.0 °F - 39.2 °F 66% 30.12 in 10.0 mi South 6.9 mph - N/A   Clear
7:15 PM 51.8 °F - 39.2 °F 62% 30.12 in 10.0 mi South 6.9 mph - N/A   Clear
7:35 PM 53.6 °F - 39.2 °F 58% 30.12 in 10.0 mi SSW 9.2 mph - N/A   Clear
7:55 PM 53.6 °F - 39.2 °F 58% 30.13 in 10.0 mi SSW 9.2 mph - N/A   Clear
8:15 PM 53.6 °F - 41.0 °F 62% 30.13 in 10.0 mi SSW 9.2 mph - N/A   Clear
8:35 PM 53.6 °F - 41.0 °F 62% 30.13 in 10.0 mi SSW 11.5 mph 17.3 mph N/A   Scattered Clouds
8:55 PM 55.4 °F - 41.0 °F 58% 30.13 in 10.0 mi SSW 11.5 mph - N/A   Overcast
9:15 PM 53.6 °F - 42.8 °F 67% 30.14 in 10.0 mi SSW 12.7 mph - N/A   Overcast
9:35 PM 53.6 °F - 42.8 °F 67% 30.14 in 10.0 mi SSW 12.7 mph - N/A   Overcast
9:55 PM 55.4 °F - 42.8 °F 63% 30.14 in 10.0 mi SW 13.8 mph 20.7 mph N/A   Overcast
10:15 PM 53.6 °F - 42.8 °F 67% 30.14 in 10.0 mi SW 13.8 mph - N/A   Overcast
10:35 PM 55.4 °F - 42.8 °F 63% 30.14 in 10.0 mi SW 13.8 mph - N/A   Overcast
10:55 PM 55.4 °F - 42.8 °F 63% 30.14 in 10.0 mi SW 12.7 mph 18.4 mph N/A   Overcast
11:15 PM 55.4 °F - 42.8 °F 63% 30.14 in 10.0 mi SW 13.8 mph 18.4 mph N/A   Overcast
11:35 PM 55.4 °F - 42.8 °F 63% 30.14 in 10.0 mi SW 13.8 mph - N/A   Mostly Cloudy
11:55 PM 55.4 °F - 42.8 °F 63% 30.13 in 10.0 mi SW 12.7 mph 18.4 mph N/A   Overcast